GW4350 Weather Reports


time (UTC)temp
F
wind
direction
speed
knots
gust
knots
rain 1hr
in
rain 24hr
in
rain mn
in
humidity
%
barometer
mb
20260504150837 66 176 2.6 4.3 0.00 0.00 0.00 42 1002.4
20260504150333 64 281 3.5 7.8 0.00 0.00 0.00 40 1002.3
20260504141303 62 121 4.3 5.2 0.00 0.00 0.00 54 1002.2
20260504140800 61 153 0.9 1.7 0.00 0.00 0.00 58 1002.2
20260504140255 61 183 3.5 4.3 0.00 0.00 0.00 56 1002.3
20260504130724 57 121 1.7 1.7 0.00 0.00 0.00 65 1002.6
20260504130220 58 140 1.7 1.7 0.00 0.00 0.00 65 1002.8
20260504120144 51 130 1.7 1.7 0.00 0.00 0.00 77 1003.0
20260504110612 46 157 0.0 0.0 0.00 0.00 0.00 81 1003.2
20260504110108 46 169 0.0 0.0 0.00 0.00 0.00 81 1003.2
20260504100534 43 178 0.0 0.0 0.00 0.00 0.00 80 1003.2
20260504081927 44 160 0.0 0.0 0.00 0.00 0.00 69 1002.9
20260504081424 44 162 0.0 0.0 0.00 0.00 0.00 69 1003.0
20260504080920 45 162 0.0 0.0 0.00 0.00 0.00 68 1003.0
20260504080417 45 162 0.0 0.0 0.00 0.00 0.00 67 1003.1
20260504070344 46 159 0.0 0.0 0.00 0.00 0.00 60 1003.0
20260504050732 46 152 0.0 0.0 0.00 0.00 0.00 63 1003.1
20260504050229 46 152 0.0 0.0 0.00 0.00 0.00 64 1003.1
20260504045727 47 153 0.0 0.0 0.00 0.00 0.00 61 1003.1
20260504045221 47 155 0.0 0.0 0.00 0.00 0.00 60 1002.8
20260504044719 47 153 0.0 0.0 0.00 0.00 0.00 60 1002.8
20260504044217 46 155 0.0 0.0 0.00 0.00 0.00 60 1003.0
20260504043714 46 153 0.0 0.0 0.00 0.00 0.00 62 1003.0
20260504043210 46 153 0.0 0.0 0.00 0.00 0.00 62 1002.6
20260504042708 46 153 0.0 0.0 0.00 0.00 0.00 63 1002.7
20260504042204 45 153 0.0 0.0 0.00 0.00 0.00 63 1002.8
20260504041700 46 153 0.0 0.0 0.00 0.00 0.00 63 1002.6
20260504041156 46 153 0.0 0.0 0.00 0.00 0.00 63 1002.8
20260504040653 46 150 0.0 0.0 0.00 0.00 0.00 64 1002.6
20260504040150 46 150 0.0 0.0 0.00 0.00 0.00 63 1002.4
20260504035647 46 150 0.0 0.0 0.00 0.00 0.00 62 1002.6
20260504035144 46 149 0.0 0.0 0.00 0.00 0.00 62 1002.3
20260504034641 46 154 0.0 0.0 0.00 0.00 0.00 64 1002.5
20260504034138 46 154 0.0 0.0 0.00 0.00 0.00 63 1002.4
20260504033636 46 154 0.0 0.0 0.00 0.00 0.00 61 1002.5
20260504033133 46 151 0.0 0.0 0.00 0.00 0.00 62 1002.4
20260504032630 47 150 0.0 0.0 0.00 0.00 0.00 60 1002.5
20260504032127 47 150 0.0 0.0 0.00 0.00 0.00 60 1002.5
20260504031624 47 152 0.0 0.0 0.00 0.00 0.00 61 1002.4
20260504031120 48 159 0.0 0.0 0.00 0.00 0.00 60 1002.4
20260504030617 48 153 0.0 0.0 0.00 0.00 0.00 60 1002.5
20260504030114 48 152 0.0 0.0 0.00 0.00 0.00 59 1002.2
20260504025610 48 152 0.0 0.0 0.00 0.00 0.00 59 1002.3
20260504025108 48 152 0.0 0.0 0.00 0.00 0.00 57 1002.5
20260504024605 49 150 0.0 0.0 0.00 0.00 0.00 57 1002.5
20260504024101 49 174 0.0 0.0 0.00 0.00 0.00 54 1002.4
20260504023558 49 163 0.0 0.0 0.00 0.00 0.00 58 1002.4
20260504023054 49 152 0.0 0.0 0.00 0.00 0.00 57 1002.4
20260504022550 48 152 0.0 0.0 0.00 0.00 0.00 58 1002.3
20260504022046 48 153 0.0 0.0 0.00 0.00 0.00 58 1002.5
20260504021544 48 151 0.0 0.0 0.00 0.00 0.00 58 1002.4
20260504021041 48 152 0.0 0.0 0.00 0.00 0.00 57 1002.3
20260504020538 48 151 0.0 0.0 0.00 0.00 0.00 58 1002.4
20260504020034 49 152 0.0 0.0 0.00 0.00 0.00 57 1002.3
20260504015530 49 151 0.0 0.0 0.00 0.00 0.00 57 1002.3
20260504015026 49 153 0.0 0.0 0.00 0.00 0.00 55 1002.2
20260504014523 50 154 0.0 0.0 0.00 0.00 0.00 54 1002.2
20260504014020 50 154 0.0 0.0 0.00 0.00 0.00 55 1002.1
20260504013518 50 152 0.0 0.0 0.00 0.00 0.00 58 1002.4
20260504013015 51 152 0.0 0.0 0.00 0.00 0.00 52 1002.3
20260504012512 52 153 0.0 0.0 0.00 0.00 0.00 48 1002.0
20260504012010 52 152 0.0 0.0 0.00 0.00 0.00 50 1001.8
20260504011506 52 167 0.0 0.0 0.00 0.00 0.00 49 1002.0
20260504011002 53 162 0.0 0.0 0.00 0.00 0.00 47 1002.1
20260504010458 53 153 0.0 0.0 0.00 0.00 0.00 50 1002.0
20260504005954 53 161 0.0 0.0 0.00 0.00 0.00 46 1001.9
20260504005451 53 160 0.0 0.9 0.00 0.00 0.00 46 1001.7
20260504004949 53 166 0.0 0.0 0.00 0.00 0.00 46 1001.7
20260504004446 52 152 0.0 0.0 0.00 0.00 0.00 51 1001.7
20260504003943 52 152 0.0 0.0 0.00 0.00 0.00 51 1001.5
20260504003439 53 153 0.0 0.0 0.00 0.00 0.00 49 1001.4
20260504002936 53 152 0.0 0.0 0.00 0.00 0.00 47 1001.4
20260504002433 54 152 0.0 0.0 0.00 0.00 0.00 46 1001.2
20260504001930 54 160 0.0 0.0 0.00 0.00 0.00 44 1001.2
20260504001428 55 151 0.0 0.0 0.00 0.00 0.00 44 1001.2
20260504000924 55 152 0.0 0.0 0.00 0.00 0.00 43 1001.3
20260504000423 56 154 0.0 0.0 0.00 0.00 0.00 42 1001.2
20260503235919 56 153 0.0 0.0 0.00 0.00 0.00 41 1001.3
20260503235416 57 231 0.9 0.9 0.00 0.00 0.00 40 1001.1
20260503234914 57 164 0.9 0.9 0.00 0.00 0.00 39 1001.0
20260503234411 58 189 0.9 1.7 0.00 0.00 0.00 38 1000.9
20260503233909 58 231 2.6 4.3 0.00 0.00 0.00 37 1000.9
20260503233405 58 184 2.6 4.3 0.00 0.00 0.00 37 1000.9
20260503232902 58 185 0.9 0.9 0.00 0.00 0.00 37 1000.7
20260503232359 58 201 0.9 0.9 0.00 0.00 0.00 37 1000.6
20260503231856 58 175 0.9 1.7 0.00 0.00 0.00 36 1001.0
20260503231354 58 237 5.2 7.8 0.00 0.00 0.00 36 1001.0
20260503230850 59 227 4.3 5.2 0.00 0.00 0.00 35 1000.7
20260503230346 59 197 1.7 1.7 0.00 0.00 0.00 35 1000.7
20260503225844 59 237 0.9 1.7 0.00 0.00 0.00 36 1000.7
20260503225340 59 179 0.9 0.9 0.00 0.00 0.00 35 1000.7
20260503224836 59 219 4.3 7.8 0.00 0.00 0.00 34 1000.6
20260503224334 59 169 0.0 0.9 0.00 0.00 0.00 35 1000.6
20260503223831 59 232 3.5 5.2 0.00 0.00 0.00 34 1000.7
20260503223329 59 264 1.7 2.6 0.00 0.00 0.00 35 1000.7
20260503222824 59 153 0.9 0.9 0.00 0.00 0.00 34 1000.7
20260503222323 59 140 2.6 4.3 0.00 0.00 0.00 34 1000.9
20260503221821 60 158 2.6 4.3 0.00 0.00 0.00 34 1000.7
20260503221319 59 308 4.3 6.1 0.00 0.00 0.00 34 1000.7
20260503220815 60 273 3.5 5.2 0.00 0.00 0.00 33 1000.5
20260503220312 61 199 4.3 6.1 0.00 0.00 0.00 32 1000.5
20260503215809 60 203 1.7 2.6 0.00 0.00 0.00 32 1000.7
20260503215306 60 200 7.0 9.6 0.00 0.00 0.00 32 1000.6
20260503214804 60 143 0.9 1.7 0.00 0.00 0.00 33 1000.7
20260503214301 60 177 1.7 2.6 0.00 0.00 0.00 31 1000.5
20260503213758 59 108 2.6 4.3 0.00 0.00 0.00 33 1000.6
20260503213255 60 181 1.7 1.7 0.00 0.00 0.00 34 1000.5
20260503212751 59 195 3.5 6.1 0.00 0.00 0.00 33 1000.4
20260503212249 60 307 2.6 4.3 0.00 0.00 0.00 33 1000.5
20260503211741 59 133 0.0 0.0 0.00 0.00 0.00 35 1000.4
20260503211237 59 168 2.6 4.3 0.00 0.00 0.00 33 1000.6
20260503210733 59 142 0.9 0.9 0.00 0.00 0.00 34 1000.5
20260503210230 59 319 4.3 7.0 0.00 0.00 0.00 34 1000.7
20260503205726 59 119 2.6 4.3 0.00 0.00 0.00 33 1000.6
20260503205222 59 68 2.6 4.3 0.00 0.00 0.00 37 1000.6
20260503204719 59 225 4.3 6.1 0.00 0.00 0.00 34 1000.7
20260503204217 58 14 3.5 4.3 0.00 0.00 0.00 36 1000.6
20260503203714 58 231 6.1 7.0 0.00 0.00 0.00 35 1000.9
20260503203211 58 253 4.3 5.2 0.00 0.00 0.00 36 1001.0
20260503202708 58 0 12.2 17.4 0.00 0.00 0.00 34 1000.7
20260503202206 57 275 2.6 4.3 0.00 0.00 0.00 36 1001.0
20260503201703 57 203 3.5 5.2 0.00 0.00 0.00 36 1001.0
20260503201201 57 204 0.9 1.7 0.00 0.00 0.00 37 1000.7
20260503200657 58 177 1.7 1.7 0.00 0.00 0.00 35 1001.0
20260503200154 58 155 0.9 1.7 0.00 0.00 0.00 35 1000.9
20260503195651 57 228 0.9 0.9 0.00 0.00 0.00 36 1000.7
20260503195148 57 300 1.7 4.3 0.00 0.00 0.00 37 1001.0
20260503194644 57 154 0.9 1.7 0.00 0.00 0.00 36 1001.0
20260503194140 58 209 0.9 0.9 0.00 0.00 0.00 38 1000.9
20260503193637 57 99 1.7 2.6 0.00 0.00 0.00 38 1001.1
20260503193132 57 108 3.5 6.1 0.00 0.00 0.00 36 1001.3
20260503192628 58 14 3.5 5.2 0.00 0.00 0.00 35 1001.3
20260503192124 58 74 1.7 1.7 0.00 0.00 0.00 36 1001.3
20260503191621 57 349 7.0 11.3 0.00 0.00 0.00 36 1001.1
20260503191118 57 274 2.6 4.3 0.00 0.00 0.00 35 1001.5
20260503190615 57 197 0.9 1.7 0.00 0.00 0.00 37 1001.4
20260503190112 57 346 4.3 8.7 0.00 0.00 0.00 37 1001.2
20260503185609 57 173 4.3 7.0 0.00 0.00 0.00 35 1001.3
20260503185108 57 320 9.6 13.0 0.00 0.00 0.00 35 1001.2
20260503184604 57 337 3.5 5.2 0.00 0.00 0.00 36 1001.3
20260503184101 57 302 7.8 9.6 0.00 0.00 0.00 35 1001.6
20260503183557 57 315 3.5 7.8 0.00 0.00 0.00 36 1001.6
20260503183055 57 327 2.6 4.3 0.00 0.00 0.00 37 1001.6
20260503182553 56 285 6.1 9.6 0.00 0.00 0.00 35 1001.8
20260503182051 55 204 1.7 1.7 0.00 0.00 0.00 40 1001.8
20260503181548 56 333 4.3 7.8 0.00 0.00 0.00 36 1002.1
20260503181044 56 182 2.6 5.2 0.00 0.00 0.00 35 1001.7
20260503180541 56 310 5.2 6.1 0.00 0.00 0.00 36 1001.8
20260503180038 56 356 6.1 7.8 0.00 0.00 0.00 38 1001.7
20260503175535 55 310 6.1 8.7 0.00 0.00 0.00 36 1001.7
20260503175032 55 208 2.6 5.2 0.00 0.00 0.00 38 1001.8
20260503174524 55 265 4.3 5.2 0.00 0.00 0.00 35 1001.8
20260503174020 55 191 1.7 1.7 0.00 0.00 0.00 37 1001.7
20260503173515 56 281 5.2 8.7 0.00 0.00 0.00 36 1002.0
20260503173011 57 265 1.7 1.7 0.00 0.00 0.00 36 1002.1
20260503172509 55 265 2.6 2.6 0.00 0.00 0.00 36 1001.9
20260503172001 53 320 2.6 7.0 0.00 0.00 0.00 37 1002.1
20260503171457 55 204 7.0 9.6 0.00 0.00 0.00 38 1002.3
20260503170955 54 188 1.7 4.3 0.00 0.00 0.00 39 1002.2
20260503170450 54 313 2.6 2.6 0.00 0.00 0.00 40 1002.2